COSMOS 1975

Last updated on Sun Jun 21 2026 00:02:15 GMT+0000 (Coordinated Universal Time)

1 19573U 88093A 26170.96782130 .00006554 00000+0 22868-3 0 9993 2 19573 82.5191 14.9043 0011614 162.1340 198.0311 15.29357369 35038
UTC large
Height (km)
Speed (km/s)
/
Latitude / Longitude
Inclination (degrees)
Orbital Period (minutes)
Azimuth
Elevation
Range (km)
Doppler Factor

Next 0 passes for location: London (51.5072 / 0.1276)

No passes found over London.
COSMOS 1975